This is the latest recevied weather packets stored in our database for station/object KI7MOQ. If no packets are shown the sender has not sent any weather packets the latest 10 day(s).
| Time | Temp. | Humidity | Pressure | Rain* | Wind** | Luminosity | Snow |
|---|---|---|---|---|---|---|---|
| 1777841909 | 30° C | 35% | 1011.7 hPa | 0 mm | - | 27 W/m² | - |
| 1777841606 | 30° C | 33% | 1011.8 hPa | 0 mm | - | 28 W/m² | - |
| 1777841303 | 30° C | 34% | 1011.8 hPa | 0 mm | - | 31 W/m² | - |
| 1777841000 | 30° C | 35% | 1011.9 hPa | 0 mm | - | 30 W/m² | - |
| 1777840697 | 29.44° C | 35% | 1011.8 hPa | 0 mm | - | 28 W/m² | - |
| 1777840395 | 29.44° C | 35% | 1011.9 hPa | 0 mm | - | 28 W/m² | - |
| 1777840092 | 29.44° C | 37% | 1012.1 hPa | 0 mm | - | 28 W/m² | - |
| 1777839790 | 29.44° C | 38% | 1011.9 hPa | 0 mm | - | 29 W/m² | - |
| 1777839488 | 28.89° C | 39% | 1012.2 hPa | 0 mm | - | 29 W/m² | - |
| 1777839184 | 28.89° C | 38% | 1012.2 hPa | 0 mm | - | 31 W/m² | - |
| 1777838882 | 28.89° C | 40% | 1012.1 hPa | 0 mm | - | 53 W/m² | - |
| 1777838577 | 28.33° C | 39% | 1012.4 hPa | 0 mm | - | 44 W/m² | - |
| 1777838275 | 28.33° C | 42% | 1012.5 hPa | 0 mm | - | 31 W/m² | - |
| 1777837971 | 28.33° C | 42% | 1012.6 hPa | 0 mm | - | 45 W/m² | - |
| 1777837664 | 28.33° C | 43% | 1012.6 hPa | 0 mm | - | 36 W/m² | - |
| 1777837359 | 27.78° C | 43% | 1012.6 hPa | 0 mm | - | 30 W/m² | - |
| 1777837056 | 27.78° C | 42% | 1012.7 hPa | 0 mm | - | 218 W/m² | - |
| 1777836752 | 27.78° C | 44% | 1012.7 hPa | 0 mm | - | 55 W/m² | - |
| 1777836447 | 27.78° C | 45% | 1012.9 hPa | 0 mm | - | 567 W/m² | - |
| 1777836143 | 27.22° C | 46% | 1012.8 hPa | 0 mm | - | 72 W/m² | - |
| 1777835840 | 27.22° C | 44% | 1012.9 hPa | 0 mm | - | 112 W/m² | - |
| 1777835537 | 26.67° C | 47% | 1012.9 hPa | 0 mm | - | 113 W/m² | - |
| 1777835233 | 26.11° C | 48% | 1012.9 hPa | 0 mm | - | 157 W/m² | - |
| 1777834930 | 25.56° C | 49% | 1013.1 hPa | 0 mm | - | 628 W/m² | - |
| 1777834628 | 25.56° C | 49% | 1013.2 hPa | 0 mm | - | 621 W/m² | - |
* Rain latest hour (hover to see other rain measurements)
** Current wind speed in m/s (hover to see current wind gust speed)